This is the latest recevied weather packets stored in our database for station/object DB0WUN-13. If no packets are shown the sender has not sent any weather packets the latest 10 day(s).
| Time | Temp. | Humidity | Pressure | Rain* | Wind** | Luminosity | Snow |
|---|---|---|---|---|---|---|---|
| 1777978521 | 20° C | 59% | 1008.5 hPa | 0 mm | - | 223 W/m² | - |
| 1777978326 | 20° C | 59% | 1008.4 hPa | 0 mm | - | 236 W/m² | - |
| 1777978263 | 20° C | 59% | 1008.5 hPa | 0 mm | - | 241 W/m² | - |
| 1777978202 | 20° C | 58% | 1008.5 hPa | 0 mm | - | 244 W/m² | - |
| 1777978140 | 20° C | 58% | 1008.5 hPa | 0 mm | - | 264 W/m² | - |
| 1777978084 | 20.56° C | 57% | 1008.4 hPa | 0 mm | - | 276 W/m² | - |
| 1777978017 | 20.56° C | 58% | 1008.5 hPa | 0 mm | - | 299 W/m² | - |
| 1777977956 | 20.56° C | 57% | 1008.5 hPa | 0 mm | - | 726 W/m² | - |
| 1777977895 | 20.56° C | 56% | 1008.6 hPa | 0 mm | - | 726 W/m² | - |
| 1777977836 | 20.56° C | 57% | 1008.5 hPa | 0 mm | - | 773 W/m² | - |
| 1777977773 | 20.56° C | 56% | 1008.5 hPa | 0 mm | - | 933 W/m² | - |
| 1777977709 | 21.11° C | 56% | 1008.5 hPa | 0 mm | - | 1000 W/m² | - |
| 1777977650 | 21.11° C | 52% | 1008.5 hPa | 0 mm | - | 1000 W/m² | - |
| 1777977587 | 21.11° C | 51% | 1008.4 hPa | 0 mm | - | 993 W/m² | - |
| 1777977530 | 20.56° C | 51% | 1008.5 hPa | 0 mm | - | 991 W/m² | - |
| 1777977469 | 20.56° C | 51% | 1008.5 hPa | 0 mm | - | 963 W/m² | - |
| 1777977409 | 20.56° C | 50% | 1008.5 hPa | 0 mm | - | 958 W/m² | - |
| 1777977343 | 20.56° C | 51% | 1008.6 hPa | 0 mm | - | 940 W/m² | - |
| 1777977282 | 20.56° C | 52% | 1008.6 hPa | 0 mm | - | 937 W/m² | - |
| 1777977222 | 20.56° C | 52% | 1008.6 hPa | 0 mm | - | 946 W/m² | - |
| 1777977161 | 20.56° C | 55% | 1008.6 hPa | 0 mm | - | 928 W/m² | - |
| 1777977098 | 20.56° C | 57% | 1008.7 hPa | 0 mm | - | 904 W/m² | - |
| 1777977038 | 20.56° C | 56% | 1008.7 hPa | 0 mm | - | 909 W/m² | - |
| 1777976972 | 20.56° C | 54% | 1008.7 hPa | 0 mm | - | 909 W/m² | - |
| 1777976915 | 20.56° C | 54% | 1008.8 hPa | 0 mm | - | 923 W/m² | - |
* Rain latest hour (hover to see other rain measurements)
** Current wind speed in m/s (hover to see current wind gust speed)